Year,Month,Day,Hour,Minute,Value (Times are PST for temperature in C)
2021,01,26,00,00,2.70
2021,01,26,00,01,2.70
2021,01,26,00,02,2.70
2021,01,26,00,03,2.60
2021,01,26,00,04,2.60
2021,01,26,00,05,2.60
2021,01,26,00,06,2.60
2021,01,26,00,07,2.60
2021,01,26,00,08,2.60
2021,01,26,00,09,2.60
2021,01,26,00,10,2.60
2021,01,26,00,11,2.60
2021,01,26,00,12,2.60
2021,01,26,00,13,2.60
2021,01,26,00,14,2.70
2021,01,26,00,15,2.70
2021,01,26,00,16,2.70
2021,01,26,00,17,2.70
2021,01,26,00,18,2.70
2021,01,26,00,19,2.70
2021,01,26,00,20,2.70
2021,01,26,00,21,2.70
2021,01,26,00,22,2.70
2021,01,26,00,23,2.60
2021,01,26,00,24,2.60
2021,01,26,00,25,2.60
2021,01,26,00,26,2.60
2021,01,26,00,27,2.60
2021,01,26,00,28,2.60
2021,01,26,00,29,2.60
2021,01,26,00,30,2.60
2021,01,26,00,31,2.60
2021,01,26,00,32,2.60
2021,01,26,00,33,2.60
2021,01,26,00,34,2.60
2021,01,26,00,35,2.60
2021,01,26,00,36,2.60
2021,01,26,00,37,2.60
2021,01,26,00,38,2.60
2021,01,26,00,39,2.50
2021,01,26,00,40,2.50
2021,01,26,00,41,2.50
2021,01,26,00,42,2.40
2021,01,26,00,43,2.40
2021,01,26,00,44,2.40
2021,01,26,00,45,2.40
2021,01,26,00,46,2.40
2021,01,26,00,47,2.50
2021,01,26,00,48,2.50
2021,01,26,00,49,2.60
2021,01,26,00,50,2.50
2021,01,26,00,51,2.50
2021,01,26,00,52,2.50
2021,01,26,00,53,2.40
2021,01,26,00,54,2.40
2021,01,26,00,55,2.40
2021,01,26,00,56,2.40
2021,01,26,00,57,2.40
2021,01,26,00,58,2.40
2021,01,26,00,59,2.40
2021,01,26,01,00,2.40
2021,01,26,01,01,2.40
2021,01,26,01,02,2.40
2021,01,26,01,03,2.30
2021,01,26,01,04,2.40
2021,01,26,01,05,2.40
2021,01,26,01,06,2.40
2021,01,26,01,07,2.40
2021,01,26,01,08,2.40
2021,01,26,01,09,2.40
2021,01,26,01,10,2.40
2021,01,26,01,11,2.50
2021,01,26,01,12,2.50
2021,01,26,01,13,2.60
2021,01,26,01,14,2.60
2021,01,26,01,15,2.60
2021,01,26,01,16,2.60
2021,01,26,01,17,2.60
2021,01,26,01,18,2.60
2021,01,26,01,19,2.60
2021,01,26,01,20,2.70
2021,01,26,01,21,2.70
2021,01,26,01,22,2.70
2021,01,26,01,23,2.70
2021,01,26,01,24,2.70
2021,01,26,01,25,2.70
2021,01,26,01,26,2.70
2021,01,26,01,27,2.70
2021,01,26,01,28,2.70
2021,01,26,01,29,2.70
2021,01,26,01,30,2.60
2021,01,26,01,31,2.60
2021,01,26,01,32,2.60
2021,01,26,01,33,2.60
2021,01,26,01,34,2.60
2021,01,26,01,35,2.60
2021,01,26,01,36,2.50
2021,01,26,01,37,2.50
2021,01,26,01,38,2.50
2021,01,26,01,39,2.40
2021,01,26,01,40,2.50
2021,01,26,01,41,2.50
2021,01,26,01,42,2.60
2021,01,26,01,43,2.70
2021,01,26,01,44,2.70
2021,01,26,01,45,2.70
2021,01,26,01,46,2.80
2021,01,26,01,47,2.80
2021,01,26,01,48,2.80
2021,01,26,01,49,2.80
2021,01,26,01,50,2.80
2021,01,26,01,51,2.90
2021,01,26,01,52,2.90
2021,01,26,01,53,2.90
2021,01,26,01,54,2.90
2021,01,26,01,55,2.90
2021,01,26,01,56,2.90
2021,01,26,01,57,2.90
2021,01,26,01,58,2.90
2021,01,26,01,59,2.90
2021,01,26,02,00,2.90
2021,01,26,02,01,2.90
2021,01,26,02,02,2.90
2021,01,26,02,03,2.90
2021,01,26,02,04,2.90
2021,01,26,02,05,2.90
2021,01,26,02,06,2.90
2021,01,26,02,07,2.90
2021,01,26,02,08,2.80
2021,01,26,02,09,2.80
2021,01,26,02,10,2.80
2021,01,26,02,11,2.80
2021,01,26,02,12,2.80
2021,01,26,02,13,2.80
2021,01,26,02,14,2.80
2021,01,26,02,15,2.70
2021,01,26,02,16,2.70
2021,01,26,02,17,2.70
2021,01,26,02,18,2.70
2021,01,26,02,19,2.70
2021,01,26,02,20,2.70
2021,01,26,02,21,2.60
2021,01,26,02,22,2.60
2021,01,26,02,23,2.60
2021,01,26,02,24,2.60
2021,01,26,02,25,2.50
2021,01,26,02,26,2.50
2021,01,26,02,27,2.50
2021,01,26,02,28,2.50
2021,01,26,02,29,2.40
2021,01,26,02,30,2.40
2021,01,26,02,31,2.40
2021,01,26,02,32,2.40
2021,01,26,02,33,2.40
2021,01,26,02,34,2.40
2021,01,26,02,35,2.40
2021,01,26,02,36,2.30
2021,01,26,02,37,2.30
2021,01,26,02,38,2.30
2021,01,26,02,39,2.30
2021,01,26,02,40,2.30
2021,01,26,02,41,2.30
2021,01,26,02,42,2.30
2021,01,26,02,43,2.30
2021,01,26,02,44,2.20
2021,01,26,02,45,2.20
2021,01,26,02,46,2.20
2021,01,26,02,47,2.20
2021,01,26,02,48,2.20
2021,01,26,02,49,2.20
2021,01,26,02,50,2.20
2021,01,26,02,51,2.20
2021,01,26,02,52,2.10
2021,01,26,02,53,2.10
2021,01,26,02,54,2.10
2021,01,26,02,55,2.10
2021,01,26,02,56,2.10
2021,01,26,02,57,2.10
2021,01,26,02,58,2.10
2021,01,26,02,59,2.10
2021,01,26,03,00,2.10
2021,01,26,03,01,2.10
2021,01,26,03,02,2.10
2021,01,26,03,03,2.10
2021,01,26,03,04,2.10
2021,01,26,03,05,2.00
2021,01,26,03,06,2.00
2021,01,26,03,07,1.90
2021,01,26,03,08,1.90
2021,01,26,03,09,1.90
2021,01,26,03,10,1.90
2021,01,26,03,11,1.80
2021,01,26,03,12,1.80
2021,01,26,03,13,1.80
2021,01,26,03,14,1.80
2021,01,26,03,15,1.80
2021,01,26,03,16,1.80
2021,01,26,03,17,1.80
2021,01,26,03,18,1.80
2021,01,26,03,19,1.80
2021,01,26,03,20,1.80
2021,01,26,03,21,1.70
2021,01,26,03,22,1.70
2021,01,26,03,23,1.70
2021,01,26,03,24,1.70
2021,01,26,03,25,1.70
2021,01,26,03,26,1.60
2021,01,26,03,27,1.60
2021,01,26,03,28,1.60
2021,01,26,03,29,1.60
2021,01,26,03,30,1.60
2021,01,26,03,31,1.60
2021,01,26,03,32,1.60
2021,01,26,03,33,1.60
2021,01,26,03,34,1.60
2021,01,26,03,35,1.60
2021,01,26,03,36,1.60
2021,01,26,03,37,1.60
2021,01,26,03,38,1.60
2021,01,26,03,39,1.60
2021,01,26,03,40,1.60
2021,01,26,03,41,1.60
2021,01,26,03,42,1.60
2021,01,26,03,43,1.60
2021,01,26,03,44,1.60
2021,01,26,03,45,1.50
2021,01,26,03,46,1.50
2021,01,26,03,47,1.50
2021,01,26,03,48,1.50
2021,01,26,03,49,1.40
2021,01,26,03,50,1.40
2021,01,26,03,51,1.40
2021,01,26,03,52,1.40
2021,01,26,03,53,1.40
2021,01,26,03,54,1.40
2021,01,26,03,55,1.40
2021,01,26,03,56,1.40
2021,01,26,03,57,1.40
2021,01,26,03,58,1.40
2021,01,26,03,59,1.40
2021,01,26,04,00,1.50
2021,01,26,04,01,1.50
2021,01,26,04,02,1.50
2021,01,26,04,03,1.60
2021,01,26,04,04,1.60
2021,01,26,04,05,1.50
2021,01,26,04,06,1.50
2021,01,26,04,07,1.50
2021,01,26,04,08,1.50
2021,01,26,04,09,1.50
2021,01,26,04,10,1.50
2021,01,26,04,11,1.50
2021,01,26,04,12,1.50
2021,01,26,04,13,1.40
2021,01,26,04,14,1.40
2021,01,26,04,15,1.40
2021,01,26,04,16,1.30
2021,01,26,04,17,1.30
2021,01,26,04,18,1.20
2021,01,26,04,19,1.20
2021,01,26,04,20,1.20
2021,01,26,04,21,1.10
2021,01,26,04,22,1.10
2021,01,26,04,23,1.10
2021,01,26,04,24,1.00
2021,01,26,04,25,1.00
2021,01,26,04,26,1.00
2021,01,26,04,27,0.90
2021,01,26,04,28,0.90
2021,01,26,04,29,0.90
2021,01,26,04,30,1.00
2021,01,26,04,31,1.00
2021,01,26,04,32,1.00
2021,01,26,04,33,1.10
2021,01,26,04,34,1.10
2021,01,26,04,35,1.10
2021,01,26,04,36,1.10
2021,01,26,04,37,1.10
2021,01,26,04,38,1.10
2021,01,26,04,39,1.10
2021,01,26,04,40,1.10
2021,01,26,04,41,1.10
2021,01,26,04,42,1.10
2021,01,26,04,43,1.10
2021,01,26,04,44,1.10
2021,01,26,04,45,1.20
2021,01,26,04,46,1.20
2021,01,26,04,47,1.10
2021,01,26,04,48,1.20
2021,01,26,04,49,1.10
2021,01,26,04,50,1.20
2021,01,26,04,51,1.20
2021,01,26,04,52,1.20
2021,01,26,04,53,1.20
2021,01,26,04,54,1.20
2021,01,26,04,55,1.20
2021,01,26,04,56,1.20
2021,01,26,04,57,1.20
2021,01,26,04,58,1.20
2021,01,26,04,59,1.20
2021,01,26,05,00,1.20
2021,01,26,05,01,1.20
2021,01,26,05,02,1.20
2021,01,26,05,03,1.20
2021,01,26,05,04,1.20
2021,01,26,05,05,1.20
2021,01,26,05,06,1.20
2021,01,26,05,07,1.20
2021,01,26,05,08,1.30
2021,01,26,05,09,1.30
2021,01,26,05,10,1.30
2021,01,26,05,11,1.30
2021,01,26,05,12,1.30
2021,01,26,05,13,1.30
2021,01,26,05,14,1.40
2021,01,26,05,15,1.40
2021,01,26,05,16,1.40
2021,01,26,05,17,1.40
2021,01,26,05,18,1.40
2021,01,26,05,19,1.50
2021,01,26,05,20,1.50
2021,01,26,05,21,1.50
2021,01,26,05,22,1.50
2021,01,26,05,23,1.60
2021,01,26,05,24,1.60
2021,01,26,05,25,1.60
2021,01,26,05,26,1.60
2021,01,26,05,27,1.60
2021,01,26,05,28,1.60
2021,01,26,05,29,1.60
2021,01,26,05,30,1.60
2021,01,26,05,31,1.70
2021,01,26,05,32,1.70
2021,01,26,05,33,1.70
2021,01,26,05,34,1.70
2021,01,26,05,35,1.70
2021,01,26,05,36,1.70
2021,01,26,05,37,1.70
2021,01,26,05,38,1.70
2021,01,26,05,39,1.70
2021,01,26,05,40,1.70
2021,01,26,05,41,1.60
2021,01,26,05,42,1.70
2021,01,26,05,43,1.70
2021,01,26,05,44,1.70
2021,01,26,05,45,1.70
2021,01,26,05,46,1.70
2021,01,26,05,47,1.70
2021,01,26,05,48,1.70
2021,01,26,05,49,1.70
2021,01,26,05,50,1.70
2021,01,26,05,51,1.70
2021,01,26,05,52,1.70
2021,01,26,05,53,1.70
2021,01,26,05,54,1.70
2021,01,26,05,55,1.80
2021,01,26,05,56,1.80
2021,01,26,05,57,1.80
2021,01,26,05,58,1.80
2021,01,26,05,59,1.90
2021,01,26,06,00,1.90
2021,01,26,06,01,1.90
2021,01,26,06,02,1.90
2021,01,26,06,03,1.90
2021,01,26,06,04,1.90
2021,01,26,06,05,1.90
2021,01,26,06,06,1.90
2021,01,26,06,07,1.90
2021,01,26,06,08,1.90
2021,01,26,06,09,1.90
2021,01,26,06,10,1.90
2021,01,26,06,11,2.00
2021,01,26,06,12,2.00
2021,01,26,06,13,2.00
2021,01,26,06,14,2.00
2021,01,26,06,15,2.00
2021,01,26,06,16,2.10
2021,01,26,06,17,2.10
2021,01,26,06,18,2.20
2021,01,26,06,19,2.20
2021,01,26,06,20,2.20
2021,01,26,06,21,2.30
2021,01,26,06,22,2.30
2021,01,26,06,23,2.40
2021,01,26,06,24,2.40
2021,01,26,06,25,2.50
2021,01,26,06,26,2.50
2021,01,26,06,27,2.60
2021,01,26,06,28,2.60
2021,01,26,06,29,2.70
2021,01,26,06,30,2.70
2021,01,26,06,31,2.80
2021,01,26,06,32,2.80
2021,01,26,06,33,2.80
2021,01,26,06,34,2.90
2021,01,26,06,35,2.90
2021,01,26,06,36,2.90
2021,01,26,06,37,3.00
2021,01,26,06,38,3.00
2021,01,26,06,39,3.00
2021,01,26,06,40,3.00
2021,01,26,06,41,3.00
2021,01,26,06,42,3.00
2021,01,26,06,43,3.10
2021,01,26,06,44,3.10
2021,01,26,06,45,3.10
2021,01,26,06,46,3.10
2021,01,26,06,47,3.20
2021,01,26,06,48,3.20
2021,01,26,06,49,3.20
2021,01,26,06,50,3.20
2021,01,26,06,51,3.20
2021,01,26,06,52,3.20
2021,01,26,06,53,3.20
2021,01,26,06,54,3.20
2021,01,26,06,55,3.30
2021,01,26,06,56,3.30
2021,01,26,06,57,3.30
2021,01,26,06,58,3.30
2021,01,26,06,59,3.30
2021,01,26,07,00,3.40
2021,01,26,07,01,3.40
2021,01,26,07,02,3.40
2021,01,26,07,03,3.40
2021,01,26,07,04,3.40
2021,01,26,07,05,3.40
2021,01,26,07,06,3.50
2021,01,26,07,07,3.50
2021,01,26,07,08,3.50
2021,01,26,07,09,3.50
2021,01,26,07,10,3.50
2021,01,26,07,11,3.50
2021,01,26,07,12,3.50
2021,01,26,07,13,3.50
2021,01,26,07,14,3.60
2021,01,26,07,15,3.50
2021,01,26,07,16,3.60
2021,01,26,07,17,3.60
2021,01,26,07,18,3.50
2021,01,26,07,19,3.50
2021,01,26,07,20,3.50
2021,01,26,07,21,3.50
2021,01,26,07,22,3.50
2021,01,26,07,23,3.50
2021,01,26,07,24,3.50
2021,01,26,07,25,3.50
2021,01,26,07,26,3.50
2021,01,26,07,27,3.60
2021,01,26,07,28,3.50
2021,01,26,07,29,3.60
2021,01,26,07,30,3.60
2021,01,26,07,31,3.60
2021,01,26,07,32,3.60
2021,01,26,07,33,3.60
2021,01,26,07,34,3.60
2021,01,26,07,35,3.60
2021,01,26,07,36,3.60
2021,01,26,07,37,3.60
2021,01,26,07,38,3.60
2021,01,26,07,39,3.60
2021,01,26,07,40,3.60
2021,01,26,07,41,3.60
2021,01,26,07,42,3.50
2021,01,26,07,43,3.50
2021,01,26,07,44,3.50
2021,01,26,07,45,3.50
2021,01,26,07,46,3.50
2021,01,26,07,47,3.50
2021,01,26,07,48,3.50
2021,01,26,07,49,3.50
2021,01,26,07,50,3.50
2021,01,26,07,51,3.50
2021,01,26,07,52,3.50
2021,01,26,07,53,3.50
2021,01,26,07,54,3.50
2021,01,26,07,55,3.40
2021,01,26,07,56,3.40
2021,01,26,07,57,3.40
2021,01,26,07,58,3.40
2021,01,26,07,59,3.40
2021,01,26,08,00,3.40
2021,01,26,08,01,3.40
2021,01,26,08,02,3.40
2021,01,26,08,03,3.40
2021,01,26,08,04,3.40
2021,01,26,08,05,3.50
2021,01,26,08,06,3.50
2021,01,26,08,07,3.50
2021,01,26,08,08,3.60
2021,01,26,08,09,3.60
2021,01,26,08,10,3.60
2021,01,26,08,11,3.70
2021,01,26,08,12,3.70
2021,01,26,08,13,3.70
2021,01,26,08,14,3.70
2021,01,26,08,15,3.70
2021,01,26,08,16,3.70
2021,01,26,08,17,3.70
2021,01,26,08,18,3.70
2021,01,26,08,19,3.70
2021,01,26,08,20,3.70
2021,01,26,08,21,3.70
2021,01,26,08,22,3.70
2021,01,26,08,23,3.70
2021,01,26,08,24,3.70
2021,01,26,08,25,3.70
2021,01,26,08,26,3.70
2021,01,26,08,27,3.70
2021,01,26,08,28,3.70
2021,01,26,08,29,3.70
2021,01,26,08,30,3.70
2021,01,26,08,31,3.70
2021,01,26,08,32,3.70
2021,01,26,08,33,3.80
2021,01,26,08,34,3.80
2021,01,26,08,35,3.80
2021,01,26,08,36,3.80
2021,01,26,08,37,3.80
2021,01,26,08,38,3.80
2021,01,26,08,39,3.80
2021,01,26,08,40,3.80
2021,01,26,08,41,3.80
2021,01,26,08,42,3.80
2021,01,26,08,43,3.90
2021,01,26,08,44,3.90
2021,01,26,08,45,3.90
2021,01,26,08,46,3.90
2021,01,26,08,47,3.90
2021,01,26,08,48,3.90
2021,01,26,08,49,3.90
2021,01,26,08,50,4.00
2021,01,26,08,51,4.00
2021,01,26,08,52,4.00
2021,01,26,08,53,4.00
2021,01,26,08,54,4.00
2021,01,26,08,55,4.10
2021,01,26,08,56,4.10
2021,01,26,08,57,4.10
2021,01,26,08,58,4.10
2021,01,26,08,59,4.10
2021,01,26,09,00,4.10
2021,01,26,09,01,4.20
2021,01,26,09,02,4.20
2021,01,26,09,03,4.20
2021,01,26,09,04,4.20
2021,01,26,09,05,4.20
2021,01,26,09,06,4.30
2021,01,26,09,07,4.30
2021,01,26,09,08,4.30
2021,01,26,09,09,4.30
2021,01,26,09,10,4.30
2021,01,26,09,11,4.30
2021,01,26,09,12,4.30
2021,01,26,09,13,4.30
2021,01,26,09,14,4.40
2021,01,26,09,15,4.40
2021,01,26,09,16,4.40
2021,01,26,09,17,4.40
2021,01,26,09,18,4.50
2021,01,26,09,19,4.50
2021,01,26,09,20,4.50
2021,01,26,09,21,4.50
2021,01,26,09,22,4.50
2021,01,26,09,23,4.50
2021,01,26,09,24,4.60
2021,01,26,09,25,4.60
2021,01,26,09,26,4.60
2021,01,26,09,27,4.60
2021,01,26,09,28,4.60
2021,01,26,09,29,4.60
2021,01,26,09,30,4.60
2021,01,26,09,31,4.60
2021,01,26,09,32,4.60
2021,01,26,09,33,4.60
2021,01,26,09,34,4.60
2021,01,26,09,35,4.60
2021,01,26,09,36,4.60
2021,01,26,09,37,4.60
2021,01,26,09,38,4.60
2021,01,26,09,39,4.60
2021,01,26,09,40,4.60
2021,01,26,09,41,4.60
2021,01,26,09,42,4.60
2021,01,26,09,43,4.60
2021,01,26,09,44,4.60
2021,01,26,09,45,4.60
2021,01,26,09,46,4.60
2021,01,26,09,47,4.60
2021,01,26,09,48,4.60
2021,01,26,09,49,4.60
2021,01,26,09,50,4.60
2021,01,26,09,51,4.60
2021,01,26,09,52,4.70
2021,01,26,09,53,4.70
2021,01,26,09,54,4.70
2021,01,26,09,55,4.70
2021,01,26,09,56,4.80
2021,01,26,09,57,4.80
2021,01,26,09,58,4.80
2021,01,26,09,59,4.80
2021,01,26,10,00,4.90
2021,01,26,10,01,4.90
2021,01,26,10,02,4.90
2021,01,26,10,03,4.90
2021,01,26,10,04,5.00
2021,01,26,10,05,5.00
2021,01,26,10,06,5.00
2021,01,26,10,07,5.10
2021,01,26,10,08,5.10
2021,01,26,10,09,5.10
2021,01,26,10,10,5.10
2021,01,26,10,11,5.10
2021,01,26,10,12,5.20
2021,01,26,10,13,5.10
2021,01,26,10,14,5.10
2021,01,26,10,15,5.10
2021,01,26,10,16,5.10
2021,01,26,10,17,5.10
2021,01,26,10,18,5.10
2021,01,26,10,19,5.10
2021,01,26,10,20,5.10
2021,01,26,10,21,5.10
2021,01,26,10,22,5.20
2021,01,26,10,23,5.20
2021,01,26,10,24,5.20
2021,01,26,10,25,5.10
2021,01,26,10,26,5.10
2021,01,26,10,27,5.10
2021,01,26,10,28,5.10
2021,01,26,10,29,5.10
2021,01,26,10,30,5.10
2021,01,26,10,31,5.10
2021,01,26,10,32,5.10
2021,01,26,10,33,5.10
2021,01,26,10,34,5.10
2021,01,26,10,35,5.10
2021,01,26,10,36,5.10
2021,01,26,10,37,5.00
2021,01,26,10,38,4.90
2021,01,26,10,39,4.90
2021,01,26,10,40,4.90
2021,01,26,10,41,4.80
2021,01,26,10,42,4.80
2021,01,26,10,43,4.80
2021,01,26,10,44,4.70
2021,01,26,10,45,4.70
2021,01,26,10,46,4.70
2021,01,26,10,47,4.80
2021,01,26,10,48,4.80
2021,01,26,10,49,4.80
2021,01,26,10,50,4.70
2021,01,26,10,51,4.80
2021,01,26,10,52,4.80
2021,01,26,10,53,4.80
2021,01,26,10,54,4.80
2021,01,26,10,55,4.80
2021,01,26,10,56,4.80
2021,01,26,10,57,4.80
2021,01,26,10,58,4.90
2021,01,26,10,59,4.90
2021,01,26,11,00,4.90
2021,01,26,11,01,4.90
2021,01,26,11,02,4.90
2021,01,26,11,03,4.90
2021,01,26,11,04,4.80
2021,01,26,11,05,4.80
2021,01,26,11,06,4.80
2021,01,26,11,07,4.80
2021,01,26,11,08,4.80
2021,01,26,11,09,4.80
2021,01,26,11,10,4.80
2021,01,26,11,11,4.80
2021,01,26,11,12,4.80
2021,01,26,11,13,4.80
2021,01,26,11,14,4.80
2021,01,26,11,15,4.80
2021,01,26,11,16,4.80
2021,01,26,11,17,4.80
2021,01,26,11,18,4.90
2021,01,26,11,19,4.90
2021,01,26,11,20,4.90
2021,01,26,11,21,5.00
2021,01,26,11,22,5.00
2021,01,26,11,23,5.00
2021,01,26,11,24,5.10
2021,01,26,11,25,5.10
2021,01,26,11,26,5.00
2021,01,26,11,27,5.00
2021,01,26,11,28,5.10
2021,01,26,11,29,5.10
2021,01,26,11,30,5.20
2021,01,26,11,31,5.20
2021,01,26,11,32,5.20
2021,01,26,11,33,5.20
2021,01,26,11,34,5.10
2021,01,26,11,35,5.10
2021,01,26,11,36,5.10
2021,01,26,11,37,5.20
2021,01,26,11,38,5.10
2021,01,26,11,39,5.10
2021,01,26,11,40,5.20
2021,01,26,11,41,5.20
2021,01,26,11,42,5.20
2021,01,26,11,43,5.20
2021,01,26,11,44,5.20
2021,01,26,11,45,5.20
2021,01,26,11,46,5.20
2021,01,26,11,47,5.20
2021,01,26,11,48,5.20
2021,01,26,11,49,5.20
2021,01,26,11,50,5.20
2021,01,26,11,51,5.20
2021,01,26,11,52,5.30
2021,01,26,11,53,5.30
2021,01,26,11,54,5.30
2021,01,26,11,55,5.30
2021,01,26,11,56,5.30
2021,01,26,11,57,5.30
2021,01,26,11,58,5.30
2021,01,26,11,59,5.30
2021,01,26,12,00,5.30
2021,01,26,12,01,5.30
2021,01,26,12,02,5.30
2021,01,26,12,03,5.30
2021,01,26,12,04,5.30
2021,01,26,12,05,5.30
2021,01,26,12,06,5.30
2021,01,26,12,07,5.30
2021,01,26,12,08,5.20
2021,01,26,12,09,5.20
2021,01,26,12,10,5.30
2021,01,26,12,11,5.30
2021,01,26,12,12,5.30
2021,01,26,12,13,5.30
2021,01,26,12,14,5.30
2021,01,26,12,15,5.40
2021,01,26,12,16,5.40
2021,01,26,12,17,5.40
2021,01,26,12,18,5.40
2021,01,26,12,19,5.40
2021,01,26,12,20,5.40
2021,01,26,12,21,5.40
2021,01,26,12,22,5.40
2021,01,26,12,23,5.40
2021,01,26,12,24,5.40
2021,01,26,12,25,5.50
2021,01,26,12,26,5.60
2021,01,26,12,27,5.60
2021,01,26,12,28,5.60
2021,01,26,12,29,5.70
2021,01,26,12,30,5.70
2021,01,26,12,31,5.80
2021,01,26,12,32,5.80
2021,01,26,12,33,5.80
2021,01,26,12,34,5.80
2021,01,26,12,35,5.90
2021,01,26,12,36,5.90
2021,01,26,12,37,5.80
2021,01,26,12,38,5.80
2021,01,26,12,39,5.80
2021,01,26,12,40,5.80
2021,01,26,12,41,5.80
2021,01,26,12,42,5.70
2021,01,26,12,43,5.70
2021,01,26,12,44,5.80
2021,01,26,12,45,5.80
2021,01,26,12,46,5.80
2021,01,26,12,47,5.90
2021,01,26,12,48,5.90
2021,01,26,12,49,5.90
2021,01,26,12,50,5.80
2021,01,26,12,51,5.80
2021,01,26,12,52,5.70
2021,01,26,12,53,5.70
2021,01,26,12,54,5.70
2021,01,26,12,55,5.70
2021,01,26,12,56,5.70
2021,01,26,12,57,5.70
2021,01,26,12,58,5.70
2021,01,26,12,59,5.80
2021,01,26,13,00,5.80
2021,01,26,13,01,5.80
2021,01,26,13,02,5.80
2021,01,26,13,03,5.80
2021,01,26,13,04,5.80
2021,01,26,13,05,5.80
2021,01,26,13,06,5.80
2021,01,26,13,07,5.80
2021,01,26,13,08,5.80
2021,01,26,13,09,5.80
2021,01,26,13,10,5.70
2021,01,26,13,11,5.70
2021,01,26,13,12,5.70
2021,01,26,13,13,5.70
2021,01,26,13,14,5.70
2021,01,26,13,15,5.70
2021,01,26,13,16,5.70
2021,01,26,13,17,5.70
2021,01,26,13,18,5.70
2021,01,26,13,19,5.70
2021,01,26,13,20,5.80
2021,01,26,13,21,5.70
2021,01,26,13,22,5.70
2021,01,26,13,23,5.70
2021,01,26,13,24,5.70
2021,01,26,13,25,5.70
2021,01,26,13,26,5.70
2021,01,26,13,27,5.70
2021,01,26,13,28,5.80
2021,01,26,13,29,5.80
2021,01,26,13,30,5.80
2021,01,26,13,31,5.80
2021,01,26,13,32,5.80
2021,01,26,13,33,5.70
2021,01,26,13,34,5.70
2021,01,26,13,35,5.70
2021,01,26,13,36,5.70
2021,01,26,13,37,5.70
2021,01,26,13,38,5.70
2021,01,26,13,39,5.70
2021,01,26,13,40,5.70
2021,01,26,13,41,5.70
2021,01,26,13,42,5.70
2021,01,26,13,43,5.70
2021,01,26,13,44,5.70
2021,01,26,13,45,5.70
2021,01,26,13,46,5.70
2021,01,26,13,47,5.70
2021,01,26,13,48,5.70
2021,01,26,13,49,5.70
2021,01,26,13,50,5.70
2021,01,26,13,51,5.70
2021,01,26,13,52,5.70
2021,01,26,13,53,5.70
2021,01,26,13,54,5.70
2021,01,26,13,55,5.80
2021,01,26,13,56,5.80
2021,01,26,13,57,5.80
2021,01,26,13,58,5.80
2021,01,26,13,59,5.80
2021,01,26,14,00,5.80
2021,01,26,14,01,5.80
2021,01,26,14,02,5.80
2021,01,26,14,03,5.80
2021,01,26,14,04,5.80
2021,01,26,14,05,5.80
2021,01,26,14,06,5.80
2021,01,26,14,07,5.80
2021,01,26,14,08,5.80
2021,01,26,14,09,5.80
2021,01,26,14,10,5.80
2021,01,26,14,11,5.80
2021,01,26,14,12,5.80
2021,01,26,14,13,5.80
2021,01,26,14,14,5.80
2021,01,26,14,15,5.80
2021,01,26,14,16,5.80
2021,01,26,14,17,5.80
2021,01,26,14,18,5.80
2021,01,26,14,19,5.80
2021,01,26,14,20,5.90
2021,01,26,14,21,5.90
2021,01,26,14,22,5.90
2021,01,26,14,23,5.90
2021,01,26,14,24,5.90
2021,01,26,14,25,5.90
2021,01,26,14,26,5.90
2021,01,26,14,27,5.90
2021,01,26,14,28,5.90
2021,01,26,14,29,5.90
2021,01,26,14,30,5.90
2021,01,26,14,31,5.90
2021,01,26,14,32,5.90
2021,01,26,14,33,5.90
2021,01,26,14,34,5.90
2021,01,26,14,35,5.90
2021,01,26,14,36,5.90
2021,01,26,14,37,5.90
2021,01,26,14,38,5.90
2021,01,26,14,39,5.90
2021,01,26,14,40,5.90
2021,01,26,14,41,5.90
2021,01,26,14,42,5.90
2021,01,26,14,43,5.90
2021,01,26,14,44,5.90
2021,01,26,14,45,5.90
2021,01,26,14,46,5.90
2021,01,26,14,47,5.90
2021,01,26,14,48,5.90
2021,01,26,14,49,5.90
2021,01,26,14,50,5.90
2021,01,26,14,51,5.90
2021,01,26,14,52,5.90
2021,01,26,14,53,5.90
2021,01,26,14,54,5.90
2021,01,26,14,55,5.90
2021,01,26,14,56,5.90
2021,01,26,14,57,5.90
2021,01,26,14,58,5.90
2021,01,26,14,59,5.90
2021,01,26,15,00,5.90
2021,01,26,15,01,5.90
2021,01,26,15,02,5.90
2021,01,26,15,03,5.90
2021,01,26,15,04,5.90
2021,01,26,15,05,5.90
2021,01,26,15,06,5.90
2021,01,26,15,07,5.90
2021,01,26,15,08,5.90
2021,01,26,15,09,5.90
2021,01,26,15,10,5.90
2021,01,26,15,11,5.90
2021,01,26,15,12,5.90
2021,01,26,15,13,5.90
2021,01,26,15,14,5.90
2021,01,26,15,15,5.90
2021,01,26,15,16,5.90
2021,01,26,15,17,5.90
2021,01,26,15,18,5.90
2021,01,26,15,19,5.90
2021,01,26,15,20,5.90
2021,01,26,15,21,5.90
2021,01,26,15,22,5.90
2021,01,26,15,23,5.90
2021,01,26,15,24,5.90
2021,01,26,15,25,5.90
2021,01,26,15,26,5.90
2021,01,26,15,27,5.90
2021,01,26,15,28,5.90
2021,01,26,15,29,5.90
2021,01,26,15,30,5.90
2021,01,26,15,31,5.90
2021,01,26,15,32,5.90
2021,01,26,15,33,5.90
2021,01,26,15,34,5.90
2021,01,26,15,35,5.90
2021,01,26,15,36,5.90
2021,01,26,15,37,5.90
2021,01,26,15,38,5.90
2021,01,26,15,39,5.90
2021,01,26,15,40,5.90
2021,01,26,15,41,5.90
2021,01,26,15,42,5.90
2021,01,26,15,43,5.90
2021,01,26,15,44,5.90
2021,01,26,15,45,5.90
2021,01,26,15,46,5.90
2021,01,26,15,47,5.90
2021,01,26,15,48,5.90
2021,01,26,15,49,5.90
2021,01,26,15,50,6.00
2021,01,26,15,51,6.00
2021,01,26,15,52,5.90
2021,01,26,15,53,6.00
2021,01,26,15,54,6.00
2021,01,26,15,55,6.00
2021,01,26,15,56,6.00
2021,01,26,15,57,6.00
2021,01,26,15,58,6.00
2021,01,26,15,59,6.00
2021,01,26,16,00,5.90
2021,01,26,16,01,6.00
2021,01,26,16,02,5.90
2021,01,26,16,03,5.90
2021,01,26,16,04,6.00
2021,01,26,16,05,5.90
2021,01,26,16,06,5.90
2021,01,26,16,07,5.90
2021,01,26,16,08,6.00
2021,01,26,16,09,6.00
2021,01,26,16,10,6.00
2021,01,26,16,11,6.00
2021,01,26,16,12,6.00
2021,01,26,16,13,6.00
2021,01,26,16,14,6.00
2021,01,26,16,15,6.00
2021,01,26,16,16,6.00
2021,01,26,16,17,6.00
2021,01,26,16,18,6.00
2021,01,26,16,19,6.00
2021,01,26,16,20,6.00
2021,01,26,16,21,6.00
2021,01,26,16,22,6.00
2021,01,26,16,23,6.00
2021,01,26,16,24,6.00
2021,01,26,16,25,6.10
2021,01,26,16,26,6.10
2021,01,26,16,27,6.10
2021,01,26,16,28,6.10
2021,01,26,16,29,6.10
2021,01,26,16,30,6.00
2021,01,26,16,31,6.00
2021,01,26,16,32,6.00
2021,01,26,16,33,6.00
2021,01,26,16,34,6.00
2021,01,26,16,35,6.00
2021,01,26,16,36,6.00
2021,01,26,16,37,6.00
2021,01,26,16,38,6.00
2021,01,26,16,39,6.00
2021,01,26,16,40,6.00
2021,01,26,16,41,6.00
2021,01,26,16,42,6.00
2021,01,26,16,43,6.00
2021,01,26,16,44,6.00
2021,01,26,16,45,6.00
2021,01,26,16,46,6.00
2021,01,26,16,47,6.00
2021,01,26,16,48,6.00
2021,01,26,16,49,6.00
2021,01,26,16,50,6.00
2021,01,26,16,51,6.00
2021,01,26,16,52,6.10
2021,01,26,16,53,6.10
2021,01,26,16,54,6.10
2021,01,26,16,55,6.10
2021,01,26,16,56,6.10
2021,01,26,16,57,6.10
2021,01,26,16,58,6.10
2021,01,26,16,59,6.10
2021,01,26,17,00,6.10
2021,01,26,17,01,6.10
2021,01,26,17,02,6.10
2021,01,26,17,03,6.00
2021,01,26,17,04,6.10
2021,01,26,17,05,6.00
2021,01,26,17,06,6.00
2021,01,26,17,07,6.00
2021,01,26,17,08,6.10
2021,01,26,17,09,6.00
2021,01,26,17,10,6.00
2021,01,26,17,11,6.00
2021,01,26,17,12,6.00
2021,01,26,17,13,6.00
2021,01,26,17,14,6.00
2021,01,26,17,15,6.00
2021,01,26,17,16,6.00
2021,01,26,17,17,6.00
2021,01,26,17,18,6.00
2021,01,26,17,19,6.00
2021,01,26,17,20,6.00
2021,01,26,17,21,6.00
2021,01,26,17,22,6.00
2021,01,26,17,23,5.90
2021,01,26,17,24,5.90
2021,01,26,17,25,5.90
2021,01,26,17,26,5.90
2021,01,26,17,27,5.90
2021,01,26,17,28,5.90
2021,01,26,17,29,5.90
2021,01,26,17,30,5.90
2021,01,26,17,31,5.90
2021,01,26,17,32,6.00
2021,01,26,17,33,6.00
2021,01,26,17,34,6.00
2021,01,26,17,35,6.00
2021,01,26,17,36,6.00
2021,01,26,17,37,6.00
2021,01,26,17,38,6.00
2021,01,26,17,39,6.00
2021,01,26,17,40,6.00
2021,01,26,17,41,5.90
2021,01,26,17,42,6.00
2021,01,26,17,43,6.00
2021,01,26,17,44,5.90
2021,01,26,17,45,5.90
2021,01,26,17,46,6.00
2021,01,26,17,47,6.00
2021,01,26,17,48,6.00
2021,01,26,17,49,6.00
2021,01,26,17,50,5.90
2021,01,26,17,51,5.90
2021,01,26,17,52,5.90
2021,01,26,17,53,5.90
2021,01,26,17,54,5.90
2021,01,26,17,55,5.90
2021,01,26,17,56,5.90
2021,01,26,17,57,5.90
2021,01,26,17,58,5.90
2021,01,26,17,59,5.90
2021,01,26,18,00,5.90
2021,01,26,18,01,5.90
2021,01,26,18,02,5.90
2021,01,26,18,03,5.90
2021,01,26,18,04,5.90
2021,01,26,18,05,5.80
2021,01,26,18,06,5.80